Orbital Elements at Epoch 2459200.5 (2020-Dec-17.0) TDB
Reference: JPL 14 (heliocentric ecliptic J2000)
Element | Value | Uncertainty (1-sigma) | Units |
e | .04604379767910265 | 5.401e-08 | |
a | 2.96305979333957 | 2.2212e-08 | au |
q | 2.826629267703959 | 1.6927e-07 | au |
i | 3.216093807488801 | 5.3073e-06 | deg |
node | 142.7589782324856 | 9.6278e-05 | deg |
peri | 353.2593236196105 | 0.00011566 | deg |
M | 302.6454847625616 | 6.3037e-05 | deg |
tp | 2459497.307016022183 (2021-Oct-09.80701602) | 0.00032603 | TDB |
period | 1862.983678366768 5.10 | 2.0948e-05 5.735e-08 | d yr |
n | .1932384079261516 | 2.1728e-09 | deg/d |
Q | 3.099490318975181 | 2.3235e-08 | au |
|
| | Orbit Determination Parameters
Additional Information
|